Torna al catalogo

MARAFON NO. 2 GMM

AttivoComunicazioniSSO
NORAD 67251·PAYLOAD·🇹🇷 Turkey
Questo nome del satellite non è ancora stato confermato da fonti ufficiali.

Lanciato Dec 28, 2025 da Vostochny Cosmodrome

Loading…

Prossimi Passaggi (prossime 24 ore)

TLE

AggiornatoSource: Space-Track

Epoca: Sep 14, 2026, 03:18 UTC

1 67251U 25313D   26257.13797768  .00001731  00000-0  15109-3 0  9996
2 67251  97.5606 323.6695 0148474  31.9638 329.0481 14.89988251 38641

Traccia MARAFON NO. 2 GMM in tempo reale con AllMySat

Download on the App Store